星链-3811 (STARLINK-3811 )

导读 | 星芒AI

STARLINK-3811 是 SpaceX Starlink 卫星互联网项目中的第 3811 颗卫星,属于“星链”计划的中轨道卫星群之一。该卫星旨在为全球用户提供高速、低延迟的互联网服务,特别服务于偏远和网络基础设施薄弱的地区。它采用先进的推进系统和激光通信技术,以提高网络效率和卫星间通信能力。STARLINK-3811 的发射和运行有助于扩大 Starlink 的覆盖范围,提升全球互联网接入水平。

基本信息
目录编号:
52383
目录名称:
STARLINK-3811
国际标识:
2022-045BE
轨道中心:
EARTH
卫星名称:
星链-3811
卫星全名:
星链-3811 (STARLINK-3811 )
卫星状态:
在轨 (已飞行1285 天)
发射日期:
2022-04-29 UTC
国别 :
美国 (US)
星等 :
--
轨道信息
数据来源 国际轨道数据 AOE轨道数据
星历时间 2025-11-04T19:50:24+0800
9小时前
查看轨道信息
2025-11-03T09:00:00+0800
1天前
查看轨道信息
半长轴 6917.83km 6917.867km
偏心率 0.0001211 0.000277
轨道倾角 53.217° 53.220°
近地点辐角 74.068° 51.069°
升交点赤经 21.178° 27.693°
平近点角 286.044° 339.424°
近地点 538.857km 537.815km
远地点 540.533km 541.649km
周期 95.436分钟 95.437分钟
每日圈数 15.088568 15.088446
详细信息
固有亮度:
5
最大亮度:
2.5
卫星平台:
Starlink v1.5
覆盖范围:
全球
运营商:
太空探索技术公司
运营商所在国:
美国
制造商(研发单位):
太空探索技术公司
制造商所在国:
美国
使用方式:
暂无
卫星简介
星链(Starlink)计划是由太空探索技术公司(SpaceX)提出的一个巨型低轨卫星互联网星座项目,计划在2019年至2024年间在太空搭建由约1.2万颗卫星组成的“星链”网络,其中1584颗将部署在地球上空550千米处的近地轨道,并从2020年开始工作。该卫星仍在工作。
2D轨道图
3D轨道图
轨道高度分析图
轨道倾角分析图
轨道综合分析图
查看轨道综合分析图